Weather History for KMHS - June, 2014

Change the Weather History Date:

Tuesday, June 10, 2014

  Actual Average Record
Temperature  
Mean Temperature 68 °F 60 °F  
Max Temperature 82 °F 75 °F 91 °F (1974)
Min Temperature 54 °F 45 °F 29 °F (1908)
Degree Days  
Heating Degree Days 0 6  
Month to date heating degree days 5 65  
Since 1 June heating degree days 5 65  
Since 1 July heating degree days 4857 5617  
Cooling Degree Days 3 1  
Month to date cooling degree days 29 10  
Year to date cooling degree days 38 18  
Since 1 June cooling degree days 29 10  
Growing Degree Days 18 (Base 50)    
Moisture  
Dew Point 32 °F    
Average Humidity 28    
Maximum Humidity 41    
Minimum Humidity 16    
Precipitation  
Precipitation 0.00 in 0.04 in 0.54 in (1948)
Month to date precipitation T 0.53  
Year to date precipitation 11.79 25.93  
Sea Level Pressure  
Sea Level Pressure 29.95 in    
Wind  
Wind Speed 7 mph (NNW)    
Max Wind Speed 14 mph    
Max Gust Speed 27 mph    
Visibility 10 miles    
Events      
T = Trace of Precipitation, MM = Missing Value Source: NWS Daily Summary

Daily Weather History Graph

Daily Weather History Graph

Search for Another Location

Airport or City:

Trip Planner

Search our weather history database for the weather conditions in past years. The results will help you decide how hot, cold, wet, or windy it might be!

Date:

Astronomy

Jun. 10, 2014 Rise Set
Actual Time 5:35 AM PDT 8:42 PM PDT
Civil Twilight 5:02 AM PDT 9:15 PM PDT
Nautical Twilight 4:19 AM PDT 9:58 PM PDT
Astronomical Twilight 3:28 AM PDT 10:49 PM PDT
Moon 6:11 PM PDT (6/10) 3:46 AM PDT (6/10)
Length of Visible Light 16h 13m
Length of Day
15h 06m
Waxing Gibbous, 93% of the Moon is Illuminated
Jun 10
Waxing Gibbous
Jun 12
Full
Jun 19
Last Quarter
Jun 27
New
Jul 5
First Quarter

Hourly Weather History & Observations

Time (PDT) Temp. Dew Point Humidity Pressure Visibility Wind Dir Wind Speed Gust Speed Precip Events Conditions
12:56 AM 61.0 °F 30.0 °F 31% 29.94 in 10.0 mi Variable 6.9 mph - N/A   Clear
1:56 AM 62.1 °F 34.0 °F 35% 29.94 in 10.0 mi North - - N/A   Clear
2:56 AM 59.0 °F 32.0 °F 36% 29.94 in 10.0 mi Variable 3.5 mph - N/A   Clear
3:56 AM 57.0 °F 32.0 °F 39% 29.96 in 10.0 mi North 10.4 mph 19.6 mph N/A   Clear
4:56 AM 55.9 °F 30.9 °F 39% 29.96 in 10.0 mi North 8.1 mph - N/A   Clear
5:56 AM 55.9 °F 30.0 °F 37% 29.97 in 10.0 mi NNW 8.1 mph - N/A   Clear
6:56 AM 55.9 °F 32.0 °F 40% 29.99 in 10.0 mi Variable 4.6 mph - N/A   Clear
7:56 AM 59.0 °F 33.1 °F 38% 29.99 in 10.0 mi NE 6.9 mph - N/A   Clear
8:56 AM 63.0 °F 34.0 °F 34% 29.99 in 10.0 mi Variable 5.8 mph - N/A   Clear
9:56 AM 66.9 °F 30.0 °F 25% 29.99 in 10.0 mi North 8.1 mph 17.3 mph N/A   Clear
10:56 AM 72.0 °F 33.1 °F 24% 29.98 in 10.0 mi Variable 6.9 mph - N/A   Clear
11:56 AM 75.0 °F 30.0 °F 19% 29.96 in 10.0 mi Variable 6.9 mph 17.3 mph N/A   Clear
12:56 PM 78.1 °F 33.1 °F 19% 29.95 in 10.0 mi WNW 9.2 mph - N/A   Clear
1:56 PM 78.1 °F 33.1 °F 19% 29.94 in 10.0 mi NW 11.5 mph 21.9 mph N/A   Clear
2:56 PM 82.0 °F 37.0 °F 20% 29.92 in 10.0 mi Variable 5.8 mph - N/A   Clear
3:56 PM 81.0 °F 30.9 °F 16% 29.91 in 10.0 mi WNW 9.2 mph 18.4 mph N/A   Clear
4:56 PM 79.0 °F 32.0 °F 18% 29.91 in 10.0 mi WNW 9.2 mph - N/A   Clear
5:56 PM 78.1 °F 33.1 °F 19% 29.90 in 10.0 mi NW 8.1 mph - N/A   Clear
6:56 PM 75.0 °F 30.9 °F 20% 29.91 in 10.0 mi NW 9.2 mph 20.7 mph N/A   Clear
7:56 PM 73.4 °F 28.4 °F 19% 29.94 in 10.0 mi NNW 9.2 mph - N/A   Clear
8:56 PM 69.1 °F 33.1 °F 26% 29.91 in 10.0 mi Variable 6.9 mph - N/A   Clear
9:56 PM 66.9 °F 34.0 °F 30% 29.93 in 10.0 mi Variable 3.5 mph - N/A   Clear
10:56 PM 63.0 °F 34.0 °F 34% 29.93 in 10.0 mi Variable 4.6 mph - N/A   Clear
11:56 PM 63.0 °F 36.0 °F 37% 29.94 in 10.0 mi Calm Calm - N/A   Clear